DateTimeUTC,F1_A11,F1_S11,BsB_S11,BsG_S11,BsR_S11,BbsB_S11,BbsG_S11,BbsR_S11,BaB_A11,BaG_A11,BaR_A11,T_S11,U_S11,P_S11,T1_A11
2020-07-25T00:00:00Z,00000380,20000600,,,,,,,,,,24.3,04.8,0672.0,31.0
2020-07-25T00:01:00Z,00000380,20000600,,,,,,,,,,24.3,04.8,0672.0,31.0
2020-07-25T00:02:00Z,00000380,20000600,,,,,,,,,,24.3,04.8,0672.0,31.0
2020-07-25T00:03:00Z,00000380,60000600,,,,,,,,,,24.3,04.8,0672.0,31.0
2020-07-25T00:04:00Z,00000380,40000600,0001.92,0001.01,0000.73,0000.48,0000.12,-000.01,0000.11,0000.11,0000.18,24.1,04.9,0673.0,31.0
2020-07-25T00:05:00Z,00000380,00000600,0001.93,0001.29,0000.26,0000.91,0000.04,-000.14,0000.18,0000.12,0000.10,24.1,05.0,0673.1,31.0
2020-07-25T00:06:00Z,00000380,00000600,0002.33,0001.20,0000.18,0000.80,0000.17,0000.23,-000.06,0000.10,-000.06,24.0,05.1,0673.0,31.0
2020-07-25T00:07:00Z,00000380,00000600,0001.81,0001.13,0000.80,0000.84,-000.01,0000.26,0000.26,0000.23,0000.23,24.0,05.0,0673.0,31.0
2020-07-25T00:08:00Z,00000380,00000600,0001.24,0001.62,0000.52,0000.36,0000.57,0000.03,0000.04,-000.12,0000.10,24.0,05.0,0673.0,31.0
2020-07-25T00:09:00Z,00000380,00000600,0001.69,0001.28,0000.93,0000.97,0000.11,-000.17,0000.14,0000.12,0000.14,24.0,05.0,0673.0,31.0
2020-07-25T00:10:00Z,00000380,00000600,0002.20,0001.26,0000.53,0001.03,0000.46,-000.26,0000.16,0000.14,-000.04,24.0,05.0,0673.0,31.0
2020-07-25T00:11:00Z,00000380,00000600,0002.36,0001.47,0000.42,0000.37,0000.48,0000.16,0000.10,0000.12,0000.00,24.0,05.1,0673.1,31.0
2020-07-25T00:12:00Z,00000380,00000600,0002.63,0001.50,0001.01,0000.78,0000.01,0000.06,0000.03,0000.06,0000.08,24.0,04.9,0673.0,31.0
2020-07-25T00:13:00Z,00000380,00000600,0001.54,0001.25,0000.99,0000.07,0000.13,0000.17,-000.01,0000.07,-000.05,24.0,05.0,0673.0,31.0
2020-07-25T00:14:00Z,00000380,00000600,0002.80,0001.44,0000.74,0000.67,0000.17,-000.32,0000.17,0000.18,0000.18,24.0,05.0,0673.0,31.0
2020-07-25T00:15:00Z,00000380,00000600,0001.43,0001.22,-000.05,-000.04,0000.07,0000.13,0000.11,0000.02,0000.22,24.0,05.0,0673.0,31.0
2020-07-25T00:16:00Z,00000380,00000600,0001.29,0001.09,0000.53,0000.26,0000.66,0000.51,0000.06,0000.14,-000.01,24.0,05.0,0673.0,31.0
2020-07-25T00:17:00Z,00000380,00000600,0001.99,0001.05,0000.93,0000.76,-000.25,0000.43,0000.24,0000.15,0000.14,23.9,05.1,0673.0,31.0
2020-07-25T00:18:00Z,00000380,00000600,0002.93,0001.28,0000.49,0000.60,0000.40,0000.04,0000.15,0000.05,0000.06,23.9,05.0,0673.0,31.0
2020-07-25T00:19:00Z,00000380,00000600,0002.95,0001.48,0000.53,0001.14,0000.20,0000.02,-000.04,0000.19,0000.12,23.9,05.0,0673.0,31.0
2020-07-25T00:20:00Z,00000380,00000600,0002.56,0000.85,0000.73,0000.27,0000.47,-000.06,0000.20,0000.06,0000.08,23.9,05.0,0673.0,31.0
2020-07-25T00:21:00Z,00000380,00000600,0001.78,0001.54,0000.78,0000.72,0000.01,-000.20,0000.07,-000.02,-000.05,23.9,05.0,0673.0,31.0
2020-07-25T00:22:00Z,00000380,00000600,0001.46,0001.89,0000.99,-000.55,-000.20,0000.16,0000.06,0000.08,0000.24,23.9,05.0,0673.0,31.0
2020-07-25T00:23:00Z,00000380,00000600,0002.73,0001.31,0001.13,0001.01,-000.18,0000.01,0000.11,0000.20,-000.06,23.9,05.0,0673.0,31.0
2020-07-25T00:24:00Z,00000380,00000600,0000.97,0001.38,0000.83,0000.54,0000.03,-000.14,0000.06,-000.10,0000.08,23.9,05.0,0673.0,31.0
2020-07-25T00:25:00Z,00000380,00000600,0002.27,0000.96,0000.81,0000.76,-000.01,-000.27,0000.08,0000.27,0000.14,23.9,05.0,0673.0,31.0
2020-07-25T00:26:00Z,00000380,00000600,0001.74,0001.04,0000.93,0001.36,0000.18,-000.15,0000.24,-000.13,0000.07,23.9,05.0,0673.0,31.0
2020-07-25T00:27:00Z,00000380,00000600,0001.88,0001.41,0000.50,0000.62,0000.23,0000.50,0000.06,0000.38,-000.05,23.9,05.0,0673.0,30.9
2020-07-25T00:28:00Z,00000380,00000600,0002.06,0001.39,0000.40,0000.68,-000.02,-000.29,0000.00,0000.06,0000.09,23.9,05.0,0673.0,30.9
2020-07-25T00:29:00Z,00000380,00000600,0002.45,0000.80,0000.61,0000.59,0000.01,0000.47,0000.20,-000.01,0000.04,23.9,05.0,0673.0,31.0
2020-07-25T00:30:00Z,00000380,00000600,0002.67,0001.52,0001.21,0000.52,-000.06,0000.00,0000.10,0000.27,0000.21,23.9,05.0,0673.0,31.0
2020-07-25T00:31:00Z,00000380,00000600,0001.98,0001.28,0000.68,-000.00,0000.22,-000.17,0000.11,-000.04,0000.06,23.9,05.1,0673.0,31.0
2020-07-25T00:32:00Z,00000380,00000600,0002.30,0001.30,0000.47,0000.71,0000.31,-000.15,0000.07,0000.18,0000.16,23.9,05.0,0673.0,31.0
2020-07-25T00:33:00Z,00000380,00000600,0002.12,0000.95,0000.86,0000.38,0000.27,0000.12,0000.14,0000.11,0000.02,23.9,05.1,0673.0,31.0
2020-07-25T00:34:00Z,00000380,00000600,0002.48,0001.67,0000.37,0000.12,0000.09,-000.25,0000.20,0000.10,0000.15,23.9,05.0,0673.0,30.9
2020-07-25T00:35:00Z,00000380,00000600,0001.97,0001.04,0000.81,-000.16,0000.04,-000.01,-000.02,-000.01,0000.09,23.9,05.1,0672.9,30.9
2020-07-25T00:36:00Z,00000380,00000600,0001.22,0001.93,0000.70,0001.03,0000.20,0000.05,0000.08,0000.25,0000.07,23.9,05.1,0672.9,31.0
2020-07-25T00:37:00Z,00000380,00000600,0001.57,0001.77,0000.63,0000.96,-000.01,0000.17,0000.14,0000.07,0000.03,23.8,05.1,0672.9,31.0
2020-07-25T00:38:00Z,00000380,00000600,0002.36,0001.42,0000.85,0000.25,0000.15,0000.22,0000.05,0000.14,0000.02,23.8,05.2,0672.9,31.0
2020-07-25T00:39:00Z,00000380,00000600,0003.71,0001.76,0000.62,-000.29,0000.25,-000.24,0000.16,0000.11,0000.05,23.8,05.2,0672.9,31.0
2020-07-25T00:40:00Z,00000380,00000600,0001.59,0001.12,0000.56,0000.09,0000.34,0000.19,0000.13,0000.03,0000.14,23.8,05.1,0672.9,31.0
2020-07-25T00:41:00Z,00000380,00000600,0002.46,0001.15,0000.46,0000.42,0000.07,0000.18,0000.09,0000.17,0000.09,23.8,05.1,0672.9,31.0
2020-07-25T00:42:00Z,00000380,00000600,0002.71,0000.85,0000.90,0001.40,0000.22,0000.34,0000.16,0000.02,0000.03,23.8,05.1,0672.9,30.9
2020-07-25T00:43:00Z,00000380,00000600,0002.92,0001.84,0001.02,0001.10,0000.09,-000.29,0000.01,0000.07,0000.20,23.8,05.2,0672.9,30.9
2020-07-25T00:44:00Z,00000380,00000600,0001.96,0001.47,0000.26,0000.38,0000.67,-000.02,0000.14,0000.09,-000.07,23.8,05.2,0672.9,30.9
2020-07-25T00:45:00Z,00000380,00000600,0002.66,0001.33,0000.59,0000.81,0000.15,0000.27,0000.07,-000.00,0000.12,23.8,05.2,0672.9,30.9
2020-07-25T00:46:00Z,00000380,00000600,0001.86,0001.42,0000.25,0000.81,-000.06,-000.23,0000.09,0000.24,0000.08,23.8,05.2,0672.9,31.0
2020-07-25T00:47:00Z,00000380,00000600,0003.18,0001.49,0000.26,-000.28,0000.11,0000.20,0000.10,0000.09,0000.10,23.8,05.2,0672.9,30.9
2020-07-25T00:48:00Z,00000380,00000600,0002.02,0000.81,0000.14,0000.07,-000.11,-000.28,0000.15,0000.14,0000.09,23.8,05.2,0672.9,30.9
2020-07-25T00:49:00Z,00000380,00000600,0002.07,0001.24,0000.60,0000.73,0000.62,0000.21,0000.05,0000.01,0000.08,23.8,05.2,0672.9,30.9
2020-07-25T00:50:00Z,00000380,00000600,0001.68,0001.17,0000.40,0000.55,0000.25,0000.10,0000.09,0000.09,-000.05,23.8,05.2,0672.9,30.9
2020-07-25T00:51:00Z,00000380,00000600,0002.32,0001.16,0000.32,-000.11,0000.08,0000.28,0000.22,0000.21,0000.26,23.8,05.1,0672.9,30.9
2020-07-25T00:52:00Z,00000380,00000600,0002.44,0001.12,0001.00,0000.28,0000.24,0000.06,0000.09,0000.05,0000.19,23.8,05.1,0672.9,30.9
2020-07-25T00:53:00Z,00000380,00000600,0003.15,0000.66,0000.56,0001.00,-000.02,0000.03,0000.10,0000.04,-000.13,23.8,05.2,0672.9,30.9
2020-07-25T00:54:00Z,00000380,00000600,0002.73,0001.56,0000.51,0000.43,-000.08,0000.12,0000.10,0000.10,0000.21,23.8,05.2,0672.9,30.9
2020-07-25T00:55:00Z,00000380,00000600,0001.60,0001.48,0000.82,-000.17,0000.38,-000.25,-000.01,0000.19,0000.10,23.8,05.2,0672.9,30.9
2020-07-25T00:56:00Z,00000380,00000600,0001.82,0001.09,0000.79,0000.33,0000.11,0000.61,0000.14,0000.17,-000.02,23.8,05.2,0672.9,30.9
2020-07-25T00:57:00Z,00000380,40000600,,,,,,,,,,23.8,05.2,0672.9,30.9
2020-07-25T00:58:00Z,00000380,60000600,,,,,,,,,,23.9,05.0,0671.9,30.9
2020-07-25T00:59:00Z,00000380,20000600,,,,,,,,,,24.0,05.0,0671.9,31.0
2020-07-25T01:00:00Z,00000380,20000600,,,,,,,,,,24.0,05.0,0671.9,31.0
2020-07-25T01:01:00Z,00000380,20000600,,,,,,,,,,24.0,05.0,0671.9,30.9
2020-07-25T01:02:00Z,00000380,20000600,,,,,,,,,,24.0,04.9,0671.9,30.9
2020-07-25T01:03:00Z,00000380,60000600,,,,,,,,,,24.0,04.8,0671.9,30.9
2020-07-25T01:04:00Z,00000380,40000600,0002.34,0001.43,0000.91,0000.18,0000.29,0000.00,-000.16,-000.11,0000.08,23.8,05.0,0672.8,30.9
2020-07-25T01:05:00Z,00000380,00000600,0001.90,0001.35,0001.34,0000.33,0000.38,-000.03,0000.27,0000.16,0000.02,23.8,05.0,0672.9,30.9
2020-07-25T01:06:00Z,00000380,00000600,0001.68,0001.05,0001.08,-000.19,0000.11,-000.19,0000.10,0000.03,0000.15,23.8,05.0,0672.9,30.9
2020-07-25T01:07:00Z,00000380,00000600,0002.25,0001.20,0000.99,-000.09,0000.21,-000.22,0000.02,0000.17,0000.05,23.8,05.0,0672.9,30.9
2020-07-25T01:08:00Z,00000380,00000600,0002.47,0001.35,0001.27,-000.09,0000.39,0000.36,0000.08,0000.09,0000.07,23.8,05.0,0672.9,30.9
2020-07-25T01:09:00Z,00000380,00000600,0002.21,0001.07,0000.98,0000.22,0000.56,-000.29,0000.20,0000.10,0000.12,23.8,05.0,0672.9,30.9
2020-07-25T01:10:00Z,00000380,00000600,0001.39,0000.79,0001.09,-000.35,-000.00,0000.21,0000.07,0000.06,0000.09,23.8,05.0,0672.9,30.9
2020-07-25T01:11:00Z,00000380,00000600,0002.22,0001.24,0000.99,0000.96,0000.69,0000.14,-000.00,0000.08,0000.05,23.7,05.0,0672.9,30.9
2020-07-25T01:12:00Z,00000380,00000600,0001.73,0000.99,0000.78,0000.80,0000.37,-000.23,0000.11,0000.07,0000.09,23.7,04.9,0672.9,30.9
2020-07-25T01:13:00Z,00000380,00000600,0000.94,0000.86,0000.69,0000.38,0000.50,-000.03,0000.14,0000.06,0000.11,23.7,04.9,0672.8,31.0
2020-07-25T01:14:00Z,00000380,00000600,0001.63,0000.98,0000.86,0000.46,0000.15,0000.25,0000.19,0000.17,-000.09,23.7,04.9,0672.8,31.0
2020-07-25T01:15:00Z,00000380,00000600,0001.55,0000.83,0001.16,0000.54,0000.51,0000.13,0000.08,0000.10,0000.21,23.7,04.9,0672.8,30.9
2020-07-25T01:16:00Z,00000380,00000600,0002.04,0001.03,0000.66,-000.14,0000.25,0000.00,0000.14,0000.15,0000.17,23.8,04.9,0672.8,30.9
2020-07-25T01:17:00Z,00000380,00000600,0002.11,0001.68,0001.50,0000.28,0000.57,-000.02,0000.02,0000.03,-000.06,23.8,04.9,0672.8,31.0
2020-07-25T01:18:00Z,00000380,00010600,0002.56,0001.19,0000.91,0000.08,0000.53,0000.16,0000.15,0000.14,0000.09,23.8,04.9,0672.8,31.0
2020-07-25T01:19:00Z,00000380,00000600,0002.43,0001.24,0001.28,-000.46,0000.33,0000.25,0000.19,-000.04,0000.22,23.8,04.9,0672.8,30.9
2020-07-25T01:20:00Z,00000380,00000600,0001.65,0000.98,0000.86,0000.60,0000.28,-000.18,-000.02,0000.13,-000.05,23.8,04.8,0672.8,31.0
2020-07-25T01:21:00Z,00000380,00000600,0001.55,0001.33,0001.09,0000.02,0000.69,-000.10,0000.08,0000.28,-000.02,23.8,04.8,0672.8,31.0
2020-07-25T01:22:00Z,00000380,00000600,0002.01,0001.21,0000.94,0000.92,-000.24,0000.20,0000.08,-000.05,0000.06,23.8,04.8,0672.9,31.0
2020-07-25T01:23:00Z,00000380,00000600,0002.11,0001.15,0000.92,0000.36,0000.61,0000.08,0000.10,0000.18,0000.13,23.8,04.8,0672.8,31.0
2020-07-25T01:24:00Z,00000380,00000600,0001.72,0001.86,0001.52,0000.18,0000.62,0000.26,0000.14,0000.07,0000.09,23.7,04.8,0672.8,30.9
2020-07-25T01:25:00Z,00000380,00000600,0002.62,0001.12,0001.12,0000.51,0000.25,-000.08,-000.03,0000.03,-000.01,23.7,04.8,0672.9,31.0
2020-07-25T01:26:00Z,00000380,00000600,0002.23,0000.83,0000.79,0000.49,0000.02,0000.11,0000.17,0000.05,0000.10,23.7,04.7,0672.9,30.9
2020-07-25T01:27:00Z,00000380,00000600,0000.97,0001.08,0000.77,0000.44,0000.44,0000.35,0000.05,0000.16,0000.08,23.7,04.8,0672.9,31.0
2020-07-25T01:28:00Z,00000380,00000600,0001.76,0001.16,0001.14,-000.21,0000.51,-000.04,0000.04,-000.04,0000.03,23.7,04.7,0672.9,31.0
2020-07-25T01:29:00Z,00000380,00000600,0002.15,0000.89,0000.59,0000.31,0000.05,0000.38,0000.19,0000.19,0000.08,23.7,04.7,0672.9,30.9
2020-07-25T01:30:00Z,00000380,00000600,0000.95,0001.11,0001.39,-000.11,0000.73,-000.08,0000.07,0000.01,0000.11,23.7,04.7,0672.9,31.0
2020-07-25T01:31:00Z,00000380,00000600,0001.02,0000.80,0000.94,-000.25,0000.44,0000.09,0000.12,0000.20,0000.07,23.7,04.7,0672.9,31.0
2020-07-25T01:32:00Z,00000380,00000600,0002.10,0001.31,0001.12,0000.05,-000.18,0000.06,0000.13,0000.15,0000.12,23.7,04.6,0672.9,30.9
2020-07-25T01:33:00Z,00000380,00000600,0002.35,0001.50,0001.42,0000.45,0000.57,-000.22,0000.06,0000.05,-000.00,23.7,04.6,0672.9,30.9
2020-07-25T01:34:00Z,00000380,00000600,0001.92,0001.38,0000.87,-000.31,0000.32,0000.14,0000.14,0000.08,0000.07,23.7,04.7,0672.9,31.0
2020-07-25T01:35:00Z,00000380,00000600,0002.14,0001.20,0001.10,0000.67,0000.35,0000.37,0000.05,0000.03,0000.09,23.7,04.7,0672.9,30.9
2020-07-25T01:36:00Z,00000380,00000600,0000.92,0001.55,0000.94,-000.42,0000.24,-000.13,0000.20,0000.18,0000.07,23.7,04.8,0672.9,30.9
2020-07-25T01:37:00Z,00000380,00000600,0001.90,0000.54,0001.15,-000.78,0000.36,0000.29,0000.03,0000.20,0000.08,23.7,04.7,0672.9,30.9
2020-07-25T01:38:00Z,00000380,00000600,0002.04,0000.82,0000.95,0000.18,0000.23,0000.15,0000.20,-000.03,0000.07,23.7,04.8,0672.9,30.9
2020-07-25T01:39:00Z,00000380,00000600,0001.78,0002.03,0000.69,0000.19,-000.19,-000.36,0000.19,0000.14,0000.14,23.7,04.8,0672.9,30.9
2020-07-25T01:40:00Z,00000380,00000600,0001.83,0000.86,0000.38,0000.46,0000.25,0000.01,0000.08,0000.17,0000.05,23.7,04.8,0672.9,30.9
2020-07-25T01:41:00Z,00000380,00000600,0002.40,0001.81,0001.37,-000.28,0000.21,0000.38,0000.11,0000.09,0000.02,23.7,04.8,0672.9,30.9
2020-07-25T01:42:00Z,00000380,00000600,0001.16,0001.18,0000.95,0000.07,0000.12,0000.03,0000.01,0000.16,0000.21,23.6,04.9,0672.9,30.9
2020-07-25T01:43:00Z,00000380,00000600,0001.45,0001.40,0000.91,0000.26,0000.25,-000.06,0000.18,0000.03,0000.11,23.7,05.0,0672.9,30.9
2020-07-25T01:44:00Z,00000380,00000600,0002.41,0001.30,0001.29,0000.38,0000.34,0000.47,0000.22,0000.01,-000.02,23.6,05.0,0672.9,30.9
2020-07-25T01:45:00Z,00000380,00000600,0002.66,0001.65,0001.71,0000.58,0000.30,0000.19,0000.23,0000.32,0000.23,23.7,05.0,0672.9,30.9
2020-07-25T01:46:00Z,00000380,00000600,0002.59,0001.24,0001.09,0000.22,0000.46,-000.20,-000.04,-000.04,0000.01,23.7,05.0,0672.9,30.9
2020-07-25T01:47:00Z,00000380,00000600,0001.16,0001.02,0000.92,-000.51,0000.29,0000.24,0000.11,0000.28,0000.08,23.7,05.0,0672.9,31.0
2020-07-25T01:48:00Z,00000380,00000600,0002.31,0001.10,0001.23,0000.35,0000.35,0000.11,0000.17,-000.04,-000.02,23.7,04.9,0672.8,30.9
2020-07-25T01:49:00Z,00000380,00000600,0002.04,0001.46,0001.22,0001.45,0000.43,-000.02,-000.01,0000.15,0000.21,23.7,04.9,0672.9,30.9
2020-07-25T01:50:00Z,00000380,00000600,0002.62,0001.03,0001.16,0000.48,0000.74,0000.31,0000.22,0000.12,0000.07,23.7,04.9,0672.9,30.9
2020-07-25T01:51:00Z,00000380,00000600,0001.44,0000.94,0001.02,0000.88,0000.33,0000.14,0000.12,-000.06,-000.07,23.7,04.9,0672.9,30.9
2020-07-25T01:52:00Z,00000380,00000600,0001.93,0001.21,0000.80,0000.39,0000.40,0000.21,-000.13,0000.13,0000.00,23.7,04.9,0672.9,30.9
2020-07-25T01:53:00Z,00000380,00000600,0001.44,0001.30,0001.28,-000.12,0000.28,0000.47,0000.15,0000.12,0000.17,23.7,04.8,0672.9,31.0
2020-07-25T01:54:00Z,00000380,00000600,0003.22,0001.12,0000.91,0000.79,0000.14,0000.08,0000.13,0000.14,-000.01,23.7,04.9,0672.9,31.0
2020-07-25T01:55:00Z,00000380,00000600,0001.19,0001.55,0000.71,0000.35,0000.13,-000.07,-000.04,-000.00,0000.06,23.7,04.7,0672.9,31.0
2020-07-25T01:56:00Z,00000380,00000600,0001.50,0001.44,0000.81,-000.50,0000.75,-000.31,0000.15,0000.01,0000.01,23.7,04.7,0672.9,31.0
2020-07-25T01:57:00Z,00000380,40000600,,,,,,,,,,23.7,04.6,0672.8,30.9
2020-07-25T01:58:00Z,00000380,60000600,,,,,,,,,,23.8,04.7,0671.9,30.9
2020-07-25T01:59:00Z,00000380,20000600,,,,,,,,,,23.9,04.6,0671.9,30.9
2020-07-25T02:00:00Z,00000380,20000600,,,,,,,,,,23.9,04.6,0671.9,30.9
2020-07-25T02:01:00Z,00000380,20000600,,,,,,,,,,23.9,04.6,0671.9,30.9
2020-07-25T02:02:00Z,00000380,20000600,,,,,,,,,,23.9,04.6,0671.9,30.9
2020-07-25T02:03:00Z,00000380,60000600,,,,,,,,,,23.9,04.6,0671.9,30.9
2020-07-25T02:04:00Z,00000380,40000600,0002.20,0000.66,0000.98,0000.96,-000.06,0000.11,0000.21,0000.02,0000.02,23.8,04.7,0672.8,30.9
2020-07-25T02:05:00Z,00000380,00000600,0001.82,0000.64,0000.74,0000.95,0000.21,0000.22,-000.04,0000.28,0000.15,23.7,04.7,0672.8,30.9
2020-07-25T02:06:00Z,00000380,00000600,0001.08,0001.06,0000.46,0000.50,-000.02,0000.05,0000.24,0000.02,0000.02,23.7,04.7,0672.9,30.9
2020-07-25T02:07:00Z,00000380,00000600,0002.63,0000.64,0000.57,0000.72,0000.08,0000.28,0000.04,0000.02,0000.10,23.7,04.7,0672.8,30.9
2020-07-25T02:08:00Z,00000380,00000600,0000.53,0000.94,0000.70,0000.66,0000.18,0000.21,0000.14,0000.13,0000.08,23.7,04.8,0672.9,30.9
2020-07-25T02:09:00Z,00000380,00000600,0002.21,0000.94,0000.54,0001.44,0000.32,0000.27,0000.02,0000.09,0000.10,23.6,04.8,0672.9,30.9
2020-07-25T02:10:00Z,00000380,00000600,0002.25,0001.03,0000.89,0001.05,0000.58,0000.30,-000.02,0000.12,-000.09,23.6,04.7,0672.9,30.9
2020-07-25T02:11:00Z,00000380,00000600,0002.03,0000.90,0000.95,0000.64,0000.34,0000.17,0000.22,0000.09,0000.21,23.6,04.7,0672.9,30.9
2020-07-25T02:12:00Z,00000380,00000600,0002.33,0001.16,0000.52,0000.38,-000.03,0000.28,0000.07,0000.02,0000.08,23.6,04.7,0672.9,30.9
2020-07-25T02:13:00Z,00000380,00000600,0001.49,0001.68,0000.57,0000.91,-000.03,0000.05,0000.10,0000.19,0000.15,23.6,04.8,0672.9,30.9
2020-07-25T02:14:00Z,00000380,00000600,0001.65,0000.87,0000.94,0000.53,0000.53,0000.49,0000.13,0000.08,0000.11,23.6,04.7,0672.9,30.9
2020-07-25T02:15:00Z,00000380,00000600,0002.40,0000.76,0000.50,-000.04,0000.11,0000.39,0000.15,0000.10,0000.05,23.6,04.7,0672.9,30.9
2020-07-25T02:16:00Z,00000380,00000600,0001.78,0000.39,0000.61,0000.98,0000.18,-000.17,0000.12,0000.09,0000.04,23.7,04.7,0672.9,30.9
2020-07-25T02:17:00Z,00000380,00000600,0001.67,0001.14,0000.47,0001.07,-000.15,0000.32,-000.01,0000.18,-000.02,23.7,04.7,0672.9,30.9
2020-07-25T02:18:00Z,00000380,00000600,0001.29,0001.08,0000.92,0001.49,0000.07,0000.15,0000.28,0000.16,0000.21,23.7,04.7,0672.9,30.9
2020-07-25T02:19:00Z,00000380,00000600,0000.86,0000.80,0000.58,0000.55,0000.07,-000.08,-000.13,-000.10,-000.06,23.7,04.6,0672.9,30.9
2020-07-25T02:20:00Z,00000380,00000600,0002.00,0000.86,0000.35,0000.75,0000.08,-000.03,0000.16,0000.07,0000.07,23.7,04.5,0672.9,30.9
2020-07-25T02:21:00Z,00000380,00000600,0001.96,0000.89,0000.58,0001.29,0000.22,-000.09,-000.11,0000.10,0000.09,23.7,04.5,0672.9,30.9
2020-07-25T02:22:00Z,00000380,00000600,0002.31,0000.95,0000.95,0000.71,0000.08,0000.49,0000.17,0000.07,-000.05,23.7,04.5,0672.9,30.9
2020-07-25T02:23:00Z,00000380,00000600,0002.25,0000.90,0000.89,0000.10,0000.06,0000.10,0000.05,0000.01,0000.17,23.7,04.5,0672.9,30.9
2020-07-25T02:24:00Z,00000380,00000600,0002.39,0000.93,0000.44,0000.94,-000.31,0000.02,0000.08,0000.09,0000.03,23.7,04.6,0672.9,30.9
2020-07-25T02:25:00Z,00000380,00000600,0002.53,0000.88,0000.36,0001.00,0000.03,0000.20,0000.05,0000.12,0000.07,23.6,04.4,0672.9,30.9
2020-07-25T02:26:00Z,00000380,00000600,0001.93,0001.07,0000.76,0000.18,0000.19,0000.03,0000.13,0000.08,0000.02,23.7,04.4,0672.9,30.9
2020-07-25T02:27:00Z,00000380,00000600,0002.97,0001.30,0000.28,0000.21,0000.48,0000.13,0000.11,0000.07,0000.04,23.7,04.4,0672.9,30.9
2020-07-25T02:28:00Z,00000380,00000600,0001.19,0000.39,0000.53,0000.37,0000.16,0000.30,-000.06,0000.00,0000.10,23.6,04.4,0672.9,30.9
2020-07-25T02:29:00Z,00000380,00000600,0002.67,0000.93,0000.44,0000.78,0000.22,0000.01,0000.05,0000.20,0000.08,23.6,04.4,0672.8,30.9
2020-07-25T02:30:00Z,00000380,00000600,0002.17,0001.42,0000.52,0000.74,0000.08,0000.10,0000.28,0000.20,0000.06,23.6,04.4,0672.8,30.9
2020-07-25T02:31:00Z,00000380,00000600,0002.47,0001.09,0000.09,0001.03,0000.57,0000.28,0000.08,0000.03,0000.20,23.6,04.4,0672.8,31.0
2020-07-25T02:32:00Z,00000380,00000600,0001.50,0001.01,0000.54,-000.32,0000.04,0000.46,0000.15,-000.06,0000.10,23.6,04.4,0672.8,31.0
2020-07-25T02:33:00Z,00000380,00000600,0002.66,0001.03,0000.54,0001.21,0000.01,0000.36,-000.04,0000.19,-000.08,23.6,04.4,0672.8,30.9
2020-07-25T02:34:00Z,00000380,00000600,0001.65,0001.17,0000.50,0000.10,0000.13,0000.29,0000.07,-000.05,0000.08,23.6,04.4,0672.8,30.9
2020-07-25T02:35:00Z,00000380,00000600,0002.30,0001.12,0000.86,0000.13,0000.39,0000.52,-000.00,0000.18,0000.13,23.6,04.4,0672.8,30.9
2020-07-25T02:36:00Z,00000380,00000600,0002.25,0000.53,0000.65,0000.07,0000.01,0000.04,0000.21,0000.07,-000.04,23.6,04.4,0672.8,30.9
2020-07-25T02:37:00Z,00000380,00000600,0002.13,0001.07,0000.65,0000.78,-000.18,-000.03,-000.03,0000.04,0000.07,23.6,04.4,0672.8,30.9
2020-07-25T02:38:00Z,00000380,00000600,0002.58,0001.33,0000.95,0000.48,-000.19,0000.35,0000.09,0000.16,0000.16,23.6,04.3,0672.8,30.9
2020-07-25T02:39:00Z,00000380,00000600,0002.48,0001.03,0000.98,0000.11,0000.12,0000.27,-000.01,0000.14,0000.01,23.6,04.4,0672.8,30.9
2020-07-25T02:40:00Z,00000380,00000600,0001.40,0001.26,0000.28,0000.67,0000.11,0000.38,0000.27,-000.02,0000.18,23.6,04.4,0672.8,30.9
2020-07-25T02:41:00Z,00000380,00000600,0001.73,0000.57,0000.60,-000.06,-000.10,0000.17,-000.03,0000.14,0000.01,23.5,04.4,0672.7,30.9
2020-07-25T02:42:00Z,00000380,00000600,0000.74,0000.51,0001.08,0000.23,0000.02,0000.10,0000.14,0000.10,0000.06,23.5,04.4,0672.7,30.9
2020-07-25T02:43:00Z,00000380,00000600,0001.83,0000.60,0000.24,-000.23,-000.09,-000.01,0000.27,0000.14,0000.01,23.5,04.4,0672.7,30.9
2020-07-25T02:44:00Z,00000380,00000600,0002.01,0000.92,0000.97,0000.48,0000.26,-000.05,0000.12,0000.05,0000.17,23.5,04.4,0672.7,30.9
2020-07-25T02:45:00Z,00000380,00000600,0002.46,0000.84,0000.69,0000.15,0000.18,0000.22,-000.05,0000.17,0000.12,23.6,04.4,0672.7,30.9
2020-07-25T02:46:00Z,00000380,00000600,0002.38,0000.66,0000.79,0000.51,-000.14,0000.15,0000.22,0000.20,0000.23,23.6,04.5,0672.7,30.9
2020-07-25T02:47:00Z,00000380,00000600,0001.44,0001.25,0001.34,0000.71,-000.22,0000.55,0000.19,0000.06,0000.01,23.7,04.5,0672.7,31.0
2020-07-25T02:48:00Z,00000380,00000600,0002.34,0000.94,0000.56,-000.01,0000.00,0000.08,0000.03,0000.11,0000.17,23.7,04.4,0672.7,31.0
2020-07-25T02:49:00Z,00000380,00000600,0002.44,0000.87,0000.92,0000.11,0000.43,0000.02,0000.03,0000.18,-000.02,23.7,04.5,0672.7,31.0
2020-07-25T02:50:00Z,00000380,00000600,0001.94,0000.77,0000.39,0001.04,0000.08,0000.26,0000.18,0000.06,0000.16,23.7,04.4,0672.7,30.9
2020-07-25T02:51:00Z,00000380,00000600,0001.99,0000.92,0000.24,-000.04,0000.35,-000.03,0000.12,0000.01,-000.10,23.7,04.4,0672.7,30.9
2020-07-25T02:52:00Z,00000380,00000600,0002.30,0001.11,0000.40,0000.57,-000.03,0000.27,0000.06,0000.18,0000.14,23.6,04.5,0672.7,30.9
2020-07-25T02:53:00Z,00000380,00000600,0002.31,0001.26,0000.50,0000.47,0000.23,-000.38,0000.09,0000.04,0000.08,23.6,04.5,0672.7,30.9
2020-07-25T02:54:00Z,00000380,00000600,0001.69,0000.97,0000.47,0000.16,-000.02,-000.18,0000.18,0000.13,0000.13,23.6,04.5,0672.7,30.9
2020-07-25T02:55:00Z,00000380,00000600,0000.95,0001.42,0000.57,0000.99,0000.06,-000.22,0000.04,0000.08,-000.13,23.6,04.5,0672.7,30.9
2020-07-25T02:56:00Z,00000380,00000600,0001.11,0001.23,0000.52,0000.45,0000.11,0000.07,0000.02,0000.06,0000.24,23.6,04.5,0672.7,30.9
2020-07-25T02:57:00Z,00000380,40000600,,,,,,,,,,23.7,04.1,0672.6,30.9
2020-07-25T02:58:00Z,00000380,60000600,,,,,,,,,,23.8,04.4,0671.7,30.9
2020-07-25T02:59:00Z,00000380,20000600,,,,,,,,,,23.9,04.4,0671.7,30.9
2020-07-25T03:00:00Z,00000380,20000600,,,,,,,,,,23.9,04.4,0671.7,30.9
2020-07-25T03:01:00Z,00000380,20000600,,,,,,,,,,23.9,04.4,0671.7,30.9
2020-07-25T03:02:00Z,00000380,20000600,,,,,,,,,,23.9,04.4,0671.6,31.0
2020-07-25T03:03:00Z,00000380,60000600,,,,,,,,,,23.9,04.4,0671.6,30.9
2020-07-25T03:04:00Z,00000380,40000600,0001.89,0001.00,0000.73,0000.37,0000.05,0000.11,0000.09,0000.11,0000.27,23.8,04.4,0672.5,30.9
2020-07-25T03:05:00Z,00000380,00000600,0001.66,0001.27,0000.92,0000.64,-000.13,0000.39,0000.02,0000.02,-000.02,23.7,04.5,0672.6,30.9
2020-07-25T03:06:00Z,00000380,00000600,0001.79,0001.88,0000.79,-000.07,0000.20,0000.41,0000.08,0000.03,0000.09,23.7,04.4,0672.6,30.9
2020-07-25T03:07:00Z,00000380,00000600,0002.34,0001.39,0000.51,0000.69,-000.23,0000.36,0000.14,0000.11,-000.05,23.7,04.5,0672.6,30.9
2020-07-25T03:08:00Z,00000380,00000600,0001.67,0001.66,0000.49,0000.45,0000.12,0000.21,0000.02,-000.05,0000.08,23.7,04.4,0672.7,30.9
2020-07-25T03:09:00Z,00000380,00000600,0001.23,0001.11,0000.79,0000.51,0000.02,0000.28,0000.06,0000.13,0000.11,23.7,04.4,0672.7,30.9
2020-07-25T03:10:00Z,00000380,00000600,0002.36,0000.73,0000.96,0000.75,-000.07,-000.07,-000.04,0000.02,-000.11,23.6,04.4,0672.7,30.9